DateTimeUTC,F1_A11,F1_S11,BsB_S11,BsG_S11,BsR_S11,BbsB_S11,BbsG_S11,BbsR_S11,BaB_A11,BaG_A11,BaR_A11,Tu_S11,T_S11,Uu_S11,U_S11,P_S11,T1_A11
2021-09-10T04:00:00Z,00000200,21000000,,,,,,,-000.03,-000.40,-000.17,18.8,26.0,,00.0,0662.1,31.0
2021-09-10T04:01:00Z,00000200,21000000,,,,,,,-000.10,0000.02,0000.17,18.8,26.0,,00.0,0662.1,31.1
2021-09-10T04:02:00Z,00000200,21000000,,,,,,,0000.26,0000.42,-000.23,18.8,26.0,,00.0,0662.1,31.1
2021-09-10T04:03:00Z,00000200,61000000,,,,,,,0000.13,0000.13,0000.35,18.8,26.0,,00.0,0662.2,31.1
2021-09-10T04:04:00Z,00000200,41000000,0001.17,0000.66,0000.65,0000.69,0000.21,0000.25,0000.29,0000.32,0000.44,19.2,26.0,,00.0,0663.1,31.1
2021-09-10T04:05:00Z,00000200,01000000,0001.14,0001.24,0000.53,0000.24,0000.38,0000.27,0000.44,0000.55,0000.15,19.3,25.9,,00.0,0663.1,31.1
2021-09-10T04:06:00Z,00000200,01000000,0002.02,0000.74,0000.59,0000.99,0000.34,-000.03,0000.18,-000.09,-000.11,19.2,25.9,,00.0,0663.1,31.1
2021-09-10T04:07:00Z,00000200,01000000,0000.90,0000.97,0000.70,0000.65,0000.40,0000.13,-000.10,-000.10,0000.27,19.1,25.8,,00.0,0663.1,31.0
2021-09-10T04:08:00Z,00000200,01000000,0000.80,0000.99,0000.66,0000.72,0000.09,-000.27,0000.29,0000.01,-000.34,19.0,25.8,,00.0,0663.1,31.0
2021-09-10T04:09:00Z,00000200,01000000,0001.42,0000.99,0000.46,-000.14,0000.02,0000.09,0000.03,0000.17,0000.19,18.9,25.7,,00.0,0663.1,31.0
2021-09-10T04:10:00Z,00000200,01000000,0001.32,0001.10,0000.55,0000.06,0000.27,-000.28,0000.74,0000.11,0000.15,18.8,25.6,,00.0,0663.1,31.0
2021-09-10T04:11:00Z,00000200,01000000,0000.99,0000.90,0000.38,0000.49,0000.28,-000.08,0000.01,0000.02,0000.47,18.7,25.6,,00.0,0663.1,31.0
2021-09-10T04:12:00Z,00000200,01000000,0001.39,0001.16,0000.30,0000.01,0000.57,-000.00,0000.33,0000.87,0000.27,18.6,25.5,,00.0,0663.1,31.0
2021-09-10T04:13:00Z,00000200,01000000,0001.55,0000.94,0000.48,0000.23,0000.43,0000.18,0000.61,0000.32,0000.43,18.7,25.5,,00.0,0663.2,31.0
2021-09-10T04:14:00Z,00000200,01000000,0001.66,0000.98,0000.66,0000.05,-000.00,0000.34,0000.42,0000.35,0000.08,18.7,25.5,,00.0,0663.2,31.0
2021-09-10T04:15:00Z,00000200,01000000,0001.51,0000.84,0000.73,0000.38,0000.17,-000.08,-000.09,0000.37,0000.10,18.8,25.5,,00.0,0663.2,31.0
2021-09-10T04:16:00Z,00000200,01000000,0000.17,0000.75,0000.64,-000.02,0000.38,-000.01,0000.46,0000.31,0000.39,18.8,25.6,,00.0,0663.2,31.0
2021-09-10T04:17:00Z,00000200,01000000,0000.86,0000.93,0000.67,0000.14,0000.61,0000.13,0000.49,0000.15,0000.25,18.9,25.6,,00.0,0663.2,31.0
2021-09-10T04:18:00Z,00000200,01000000,0001.33,0000.99,0000.26,0001.00,0000.02,0000.15,-000.05,0000.45,0000.48,18.9,25.6,,00.0,0663.2,31.0
2021-09-10T04:19:00Z,00000200,01000000,0001.22,0001.34,0000.62,0000.55,0000.22,0000.09,0000.42,0000.24,-000.10,19.0,25.7,,00.0,0663.2,31.0
2021-09-10T04:20:00Z,00000200,01000000,0001.25,0001.13,0000.63,-000.02,0000.11,0000.11,0000.29,-000.06,0000.25,19.0,25.7,,00.0,0663.2,31.1
2021-09-10T04:21:00Z,00000200,01000000,0001.10,0001.05,0000.55,0000.48,0000.07,0000.44,0000.31,0000.20,-000.11,19.0,25.7,,00.0,0663.2,31.0
2021-09-10T04:22:00Z,00000200,01000000,0001.75,0000.85,0000.68,0000.25,0000.19,0000.59,-000.12,0000.06,0000.15,18.9,25.6,,00.0,0663.2,31.0
2021-09-10T04:23:00Z,00000200,01000000,0001.49,0000.84,0000.43,0000.11,0000.25,0000.13,0000.22,-000.00,0000.13,18.8,25.6,,00.0,0663.1,31.0
2021-09-10T04:24:00Z,00000200,01000000,0000.90,0001.04,0000.51,0000.72,0000.27,-000.40,0000.02,-000.03,0000.13,18.7,25.5,,00.0,0663.1,31.0
2021-09-10T04:25:00Z,00000200,01000000,0000.82,0001.12,0000.90,0000.05,0000.15,0000.20,0000.22,0000.24,-000.00,18.6,25.5,,00.0,0663.1,31.0
2021-09-10T04:26:00Z,00000200,01000000,0000.27,0001.15,0000.67,0000.38,0000.10,0000.20,0000.32,0000.04,-000.13,18.5,25.4,,00.0,0663.1,31.0
2021-09-10T04:27:00Z,00000200,01000000,0001.39,0001.16,0000.70,0000.48,0000.28,0000.44,0000.36,0000.50,0000.32,18.5,25.3,,00.0,0663.1,31.0
2021-09-10T04:28:00Z,00000200,01000000,0000.86,0001.01,0000.67,0000.93,0000.14,0000.22,0000.50,0000.74,0000.86,18.5,25.3,,00.0,0663.2,31.0
2021-09-10T04:29:00Z,00000200,01000000,0000.65,0001.04,0000.93,-000.09,-000.06,0000.07,-000.02,0000.10,-000.07,18.5,25.3,,00.0,0663.2,31.0
2021-09-10T04:30:00Z,00000200,01000000,0000.85,0001.04,0000.86,0000.78,0000.23,-000.03,0000.88,0000.81,0000.56,18.6,25.3,,00.0,0663.2,31.0
2021-09-10T04:31:00Z,00000200,01000000,0001.64,0001.05,0000.74,0000.07,0000.40,0000.19,0000.16,0000.43,0000.30,18.7,25.4,,00.0,0663.2,31.0
2021-09-10T04:32:00Z,00000200,01000000,0001.81,0001.32,0000.74,0000.83,0000.08,0000.24,0000.37,-000.02,0000.43,18.7,25.4,,00.0,0663.3,31.0
2021-09-10T04:33:00Z,00000200,01000000,0001.30,0001.05,0000.52,-000.22,0000.18,-000.13,0000.56,0000.46,0000.23,18.8,25.4,,00.0,0663.3,31.0
2021-09-10T04:34:00Z,00000200,01000000,0001.32,0001.06,0000.54,0000.93,-000.03,0000.01,0000.14,0000.34,-000.03,18.9,25.5,,00.0,0663.3,31.0
2021-09-10T04:35:00Z,00000200,01000000,0001.52,0001.06,0000.67,0001.16,0000.27,0000.13,0000.05,0000.36,0000.72,18.9,25.5,,00.0,0663.3,31.1
2021-09-10T04:36:00Z,00000200,01000000,0001.46,0001.31,0000.49,0000.94,0000.29,0000.48,0000.41,0000.30,-000.26,19.0,25.6,,00.0,0663.4,31.1
2021-09-10T04:37:00Z,00000200,01000000,0001.50,0001.04,0000.67,-000.18,0000.39,0000.33,0000.26,0000.19,0000.35,19.1,25.6,,00.0,0663.4,31.1
2021-09-10T04:38:00Z,00000200,01000000,0001.35,0000.84,0000.77,0000.62,0000.07,0000.50,0000.40,0000.44,0000.46,19.1,25.6,,00.0,0663.4,31.1
2021-09-10T04:39:00Z,00000200,01000000,0001.34,0001.10,0000.89,0000.03,0000.07,0000.28,0000.17,-000.04,-000.58,19.2,25.7,,00.0,0663.4,31.1
2021-09-10T04:40:00Z,00000200,01000000,0001.58,0000.85,0000.57,0000.72,0000.42,-000.07,0000.37,0000.51,0000.64,19.2,25.7,,00.0,0663.4,31.1
2021-09-10T04:41:00Z,00000200,01000000,0000.91,0000.85,0000.55,-000.12,0000.35,0000.12,-000.09,-000.29,-000.06,19.1,25.6,,00.0,0663.4,31.1
2021-09-10T04:42:00Z,00000200,01000000,0001.06,0000.92,0000.26,0000.31,-000.09,-000.21,0000.56,0000.63,0000.53,19.1,25.6,,00.0,0663.4,31.1
2021-09-10T04:43:00Z,00000200,01000000,0001.62,0001.04,0000.68,0000.36,0000.34,0000.15,0000.32,0000.24,0000.19,19.1,25.6,,00.0,0663.4,31.0
2021-09-10T04:44:00Z,00000200,01000000,0001.00,0001.09,0000.66,0000.17,0000.36,0000.24,0000.51,0000.32,0000.56,19.1,25.6,,00.0,0663.4,31.0
2021-09-10T04:45:00Z,00000200,01000000,0001.21,0001.18,0000.86,0000.07,0000.06,0000.51,0000.46,0000.60,0000.05,19.1,25.6,,00.0,0663.4,31.1
2021-09-10T04:46:00Z,00000200,01000000,0001.51,0000.84,0000.48,-000.08,0000.32,0000.43,0000.41,0000.50,0000.27,19.2,25.7,,00.0,0663.4,31.1
2021-09-10T04:47:00Z,00000200,01000000,0000.79,0001.04,0000.54,0000.12,0000.06,0000.17,0000.59,0000.18,0000.38,19.3,25.7,,00.0,0663.4,31.1
2021-09-10T04:48:00Z,00000200,01000000,0000.86,0001.33,0000.74,0000.54,0000.42,-000.11,0000.35,0000.54,0000.32,19.3,25.8,,00.0,0663.4,31.1
2021-09-10T04:49:00Z,00000200,01000000,0000.54,0001.03,0000.89,0000.30,0000.23,0000.38,0000.27,0000.21,0000.12,19.4,25.8,,00.0,0663.4,31.1
2021-09-10T04:50:00Z,00000200,01000000,0001.44,0000.95,0000.68,0000.60,0000.51,0000.24,0000.19,0000.22,0000.01,19.4,25.8,,00.0,0663.4,31.1
2021-09-10T04:51:00Z,00000200,01000000,0002.10,0001.13,0000.90,0000.26,0000.26,0000.15,0000.45,0000.54,0000.43,19.4,25.8,,00.0,0663.4,31.1
2021-09-10T04:52:00Z,00000200,01000000,0001.30,0001.07,0000.65,0000.33,0000.24,0000.00,0000.33,-000.09,0000.15,19.4,25.8,,00.0,0663.4,31.1
2021-09-10T04:53:00Z,00000200,01000000,0001.58,0000.92,0000.45,0000.62,0000.48,0000.12,-000.32,-000.07,-000.12,19.3,25.8,,00.0,0663.4,31.1
2021-09-10T04:54:00Z,00000200,01000000,0001.80,0001.02,0000.38,0000.87,0000.08,-000.14,0000.58,0000.02,-000.12,19.2,25.7,,00.0,0663.4,31.0
2021-09-10T04:55:00Z,00000200,01000000,0000.86,0001.50,0000.74,0000.47,0000.10,0000.41,-000.03,0000.26,0000.38,19.1,25.7,,00.0,0663.4,31.0
2021-09-10T04:56:00Z,00000200,01000000,0002.01,0001.02,0000.66,0000.72,0000.16,-000.03,0000.61,0000.16,0000.31,19.0,25.6,,00.0,0663.4,31.0
2021-09-10T04:57:00Z,00000200,41000000,,,,,,,-000.11,0000.31,0000.31,19.0,25.6,,00.0,0663.3,31.0
2021-09-10T04:58:00Z,00000200,61000000,,,,,,,0000.33,0000.26,-000.12,18.5,25.7,,00.0,0662.4,31.0
2021-09-10T04:59:00Z,00000200,21000000,,,,,,,0000.07,0000.38,0000.09,18.5,25.8,,00.0,0662.5,31.0
